TimeCDT,TemperatureF,Dew PointF,Humidity,Sea Level PressureIn,VisibilityMPH,Wind Direction,Wind SpeedMPH,Gust SpeedMPH,PrecipitationIn,Events,Conditions,WindDirDegrees,DateUTC
12:15 AM,62.6,60.8,94,29.75,-9999.0,SW,12.7,-,N/A,,Unknown,230,2013-11-01 05:15:00
12:35 AM,62.6,60.8,94,29.75,-9999.0,WSW,16.1,-,N/A,,Unknown,240,2013-11-01 05:35:00
12:55 AM,62.6,60.8,94,29.75,10.0,SW,13.8,-,N/A,,Mostly Cloudy,230,2013-11-01 05:55:00
1:15 AM,62.6,60.8,94,29.75,10.0,WSW,12.7,-,N/A,,Mostly Cloudy,240,2013-11-01 06:15:00
1:35 AM,62.6,60.8,94,29.76,10.0,SW,9.2,-,N/A,,Overcast,230,2013-11-01 06:35:00
1:55 AM,62.6,60.8,94,29.76,-9999.0,SW,10.4,-,N/A,,Unknown,220,2013-11-01 06:55:00
2:15 AM,62.6,60.8,94,29.76,-9999.0,SW,13.8,-,N/A,,Unknown,230,2013-11-01 07:15:00
2:35 AM,62.6,60.8,94,29.76,-9999.0,SW,10.4,-,N/A,,Unknown,230,2013-11-01 07:35:00
2:55 AM,62.6,60.8,94,29.77,-9999.0,SW,5.8,-,N/A,,Unknown,230,2013-11-01 07:55:00
3:15 AM,62.6,60.8,94,29.77,-9999.0,SW,6.9,-,N/A,,Unknown,230,2013-11-01 08:15:00
3:35 AM,60.8,59.0,94,29.78,10.0,WNW,18.4,-,N/A,,Mostly Cloudy,290,2013-11-01 08:35:00
3:55 AM,59.0,55.4,88,29.79,10.0,WNW,11.5,-,N/A,,Scattered Clouds,300,2013-11-01 08:55:00
4:15 AM,57.2,53.6,88,29.80,10.0,West,6.9,-,N/A,,Partly Cloudy,280,2013-11-01 09:15:00
4:35 AM,55.4,51.8,88,29.80,10.0,WNW,5.8,-,N/A,,Clear,290,2013-11-01 09:35:00
4:55 AM,55.4,51.8,88,29.80,10.0,WNW,4.6,-,N/A,,Clear,290,2013-11-01 09:55:00
5:15 AM,53.6,51.8,94,29.81,10.0,WNW,5.8,-,N/A,,Partly Cloudy,300,2013-11-01 10:15:00
5:35 AM,53.6,51.8,94,29.82,10.0,West,4.6,-,N/A,,Clear,270,2013-11-01 10:35:00
5:55 AM,51.8,51.8,100,29.82,10.0,SW,3.5,-,N/A,,Clear,230,2013-11-01 10:55:00
6:15 AM,51.8,50.0,94,29.82,7.0,Calm,Calm,-,N/A,,Mostly Cloudy,0,2013-11-01 11:15:00
6:35 AM,53.6,51.8,94,29.83,10.0,Calm,Calm,-,N/A,,Overcast,0,2013-11-01 11:35:00
6:55 AM,53.6,51.8,94,29.83,10.0,NW,3.5,-,N/A,,Overcast,310,2013-11-01 11:55:00
7:15 AM,53.6,51.8,94,29.83,10.0,Calm,Calm,-,N/A,,Scattered Clouds,0,2013-11-01 12:15:00
7:35 AM,53.6,51.8,94,29.84,10.0,Calm,Calm,-,N/A,,Mostly Cloudy,0,2013-11-01 12:35:00
7:55 AM,53.6,51.8,94,29.84,10.0,Calm,Calm,-,N/A,,Mostly Cloudy,0,2013-11-01 12:55:00
8:15 AM,55.4,53.6,94,29.85,10.0,Calm,Calm,-,N/A,,Scattered Clouds,0,2013-11-01 13:15:00
8:35 AM,57.2,53.6,88,29.85,10.0,WNW,5.8,-,N/A,,Scattered Clouds,290,2013-11-01 13:35:00
8:55 AM,57.2,53.6,88,29.85,10.0,NW,5.8,-,N/A,,Mostly Cloudy,320,2013-11-01 13:55:00
9:15 AM,57.2,53.6,88,29.85,10.0,WNW,4.6,-,N/A,,Scattered Clouds,300,2013-11-01 14:15:00
9:35 AM,60.8,53.6,77,29.86,10.0,WSW,3.5,-,N/A,,Mostly Cloudy,240,2013-11-01 14:35:00
9:55 AM,57.2,51.8,82,29.85,10.0,Calm,Calm,-,N/A,,Mostly Cloudy,0,2013-11-01 14:55:00
10:15 AM,60.8,53.6,77,29.85,10.0,Calm,Calm,-,N/A,,Clear,0,2013-11-01 15:15:00
10:35 AM,60.8,51.8,72,29.85,10.0,Variable,5.8,-,N/A,,Partly Cloudy,0,2013-11-01 15:35:00
10:55 AM,62.6,50.0,63,29.85,10.0,West,6.9,-,N/A,,Partly Cloudy,260,2013-11-01 15:55:00
11:15 AM,62.6,48.2,59,29.84,10.0,Calm,Calm,-,N/A,,Clear,0,2013-11-01 16:15:00
11:35 AM,64.4,50.0,59,29.84,10.0,Calm,Calm,-,N/A,,Clear,0,2013-11-01 16:35:00
11:55 AM,66.2,50.0,56,29.83,10.0,SW,9.2,-,N/A,,Partly Cloudy,230,2013-11-01 16:55:00
12:15 PM,66.2,48.2,52,29.83,10.0,SW,9.2,-,N/A,,Mostly Cloudy,230,2013-11-01 17:15:00
12:35 PM,66.2,46.4,49,29.82,10.0,WSW,10.4,-,N/A,,Partly Cloudy,250,2013-11-01 17:35:00
12:55 PM,68.0,46.4,46,29.82,10.0,SW,11.5,-,N/A,,Partly Cloudy,230,2013-11-01 17:55:00
1:15 PM,68.0,44.6,43,29.80,10.0,WSW,8.1,-,N/A,,Scattered Clouds,240,2013-11-01 18:15:00
1:35 PM,68.0,42.8,40,29.80,10.0,WSW,10.4,-,N/A,,Partly Cloudy,250,2013-11-01 18:35:00
1:55 PM,69.8,42.8,38,29.79,10.0,SW,10.4,-,N/A,,Clear,230,2013-11-01 18:55:00
2:15 PM,69.8,42.8,38,29.78,10.0,West,6.9,-,N/A,,Clear,270,2013-11-01 19:15:00
2:35 PM,69.8,41.0,35,29.79,10.0,WSW,11.5,-,N/A,,Partly Cloudy,250,2013-11-01 19:35:00
2:55 PM,69.8,39.2,33,29.78,10.0,West,12.7,-,N/A,,Partly Cloudy,260,2013-11-01 19:55:00
3:15 PM,69.8,41.0,35,29.79,10.0,West,10.4,-,N/A,,Clear,280,2013-11-01 20:15:00
4:55 PM,66.2,41.0,40,29.79,10.0,WNW,8.1,-,N/A,,Clear,290,2013-11-01 21:55:00
5:15 PM,64.4,41.0,42,29.79,10.0,WNW,8.1,-,N/A,,Clear,290,2013-11-01 22:15:00
5:35 PM,62.6,39.2,42,29.80,10.0,WNW,6.9,-,N/A,,Clear,290,2013-11-01 22:35:00
5:55 PM,59.0,41.0,51,29.81,10.0,West,4.6,-,N/A,,Clear,280,2013-11-01 22:55:00
6:15 PM,57.2,42.8,59,29.81,10.0,West,3.5,-,N/A,,Clear,280,2013-11-01 23:15:00
6:35 PM,55.4,42.8,63,29.82,10.0,SSW,3.5,-,N/A,,Clear,210,2013-11-01 23:35:00
6:55 PM,51.8,42.8,71,29.82,10.0,Calm,Calm,-,N/A,,Clear,0,2013-11-01 23:55:00
7:15 PM,51.8,44.6,76,29.83,10.0,Calm,Calm,-,N/A,,Clear,0,2013-11-02 00:15:00
7:35 PM,50.0,44.6,82,29.83,10.0,Calm,Calm,-,N/A,,Clear,0,2013-11-02 00:35:00
7:55 PM,48.2,44.6,87,29.84,10.0,Calm,Calm,-,N/A,,Clear,0,2013-11-02 00:55:00
8:15 PM,48.2,42.8,82,29.84,10.0,Calm,Calm,-,N/A,,Clear,0,2013-11-02 01:15:00
8:35 PM,48.2,42.8,82,29.84,10.0,Calm,Calm,-,N/A,,Clear,0,2013-11-02 01:35:00
8:55 PM,46.4,42.8,87,29.84,10.0,Calm,Calm,-,N/A,,Clear,0,2013-11-02 01:55:00
9:15 PM,46.4,42.8,87,29.85,10.0,SSW,3.5,-,N/A,,Clear,210,2013-11-02 02:15:00
9:35 PM,46.4,42.8,87,29.85,10.0,SSW,3.5,-,N/A,,Scattered Clouds,210,2013-11-02 02:35:00
9:55 PM,46.4,42.8,87,29.86,10.0,WSW,4.6,-,N/A,,Scattered Clouds,240,2013-11-02 02:55:00
10:15 PM,46.4,42.8,87,29.87,10.0,WSW,5.8,-,N/A,,Partly Cloudy,250,2013-11-02 03:15:00
10:35 PM,46.4,41.0,81,29.88,10.0,WSW,4.6,-,N/A,,Clear,250,2013-11-02 03:35:00
10:55 PM,46.4,41.0,81,29.88,10.0,West,3.5,-,N/A,,Clear,260,2013-11-02 03:55:00
11:15 PM,48.2,41.0,76,29.88,10.0,Calm,Calm,-,N/A,,Clear,0,2013-11-02 04:15:00
11:35 PM,46.4,41.0,81,29.87,10.0,Calm,Calm,-,N/A,,Clear,0,2013-11-02 04:35:00
11:55 PM,46.4,42.8,87,29.87,10.0,Calm,Calm,-,N/A,,Clear,0,2013-11-02 04:55:00